Year,Month,Day,Hour,Minute,Value (Times are PST for temperature in C)
2023,05,14,14,06,29.40
2023,05,14,14,07,29.40
2023,05,14,14,08,29.40
2023,05,14,14,09,29.60
2023,05,14,14,12,29.70
2023,05,14,14,17,29.80
2023,05,14,14,18,29.80
2023,05,14,14,19,29.70
2023,05,14,14,20,29.70
2023,05,14,14,21,29.60
2023,05,14,14,22,29.60
2023,05,14,14,23,29.50
2023,05,14,14,24,29.60
2023,05,14,14,25,29.70
2023,05,14,14,26,29.70
2023,05,14,14,27,29.80
2023,05,14,14,28,29.80
2023,05,14,14,29,29.80
2023,05,14,14,30,29.70
2023,05,14,14,31,29.80
2023,05,14,14,32,29.80
2023,05,14,14,33,29.90
2023,05,14,14,34,30.00
2023,05,14,14,35,30.10
2023,05,14,14,36,30.20
2023,05,14,14,37,30.30
2023,05,14,14,38,30.30
2023,05,14,14,39,30.40
2023,05,14,14,40,30.50
2023,05,14,14,41,30.60
2023,05,14,14,42,30.60
2023,05,14,14,43,30.60
2023,05,14,14,44,30.70
2023,05,14,14,46,30.80
2023,05,14,14,48,30.80
2023,05,14,14,50,30.80
2023,05,14,14,51,30.90
2023,05,14,14,52,30.90
2023,05,14,14,53,30.90
2023,05,14,14,54,30.90
2023,05,14,14,55,30.80
2023,05,14,14,56,30.80
2023,05,14,14,57,30.80
2023,05,14,14,58,30.70
2023,05,14,14,59,30.70
2023,05,14,15,00,30.70
2023,05,14,15,01,30.70
2023,05,14,15,04,30.90
2023,05,14,15,05,30.90
2023,05,14,15,06,31.00
2023,05,14,15,07,31.00
2023,05,14,15,08,31.10
2023,05,14,15,09,31.10
2023,05,14,15,10,30.90
2023,05,14,15,11,30.90
2023,05,14,15,12,30.90
2023,05,14,15,13,30.90
2023,05,14,15,14,31.10
2023,05,14,15,22,31.10
2023,05,14,15,23,31.10
2023,05,14,15,25,31.20
2023,05,14,15,28,31.40
2023,05,14,15,29,31.50
2023,05,14,15,30,31.60
2023,05,14,15,31,31.70
2023,05,14,15,32,31.70
2023,05,14,15,33,31.70
2023,05,14,15,34,31.60
2023,05,14,15,35,31.50
2023,05,14,15,36,31.30
2023,05,14,15,37,31.10
2023,05,14,15,38,31.10
2023,05,14,15,39,31.00
2023,05,14,15,40,31.00
2023,05,14,15,41,31.10
2023,05,14,15,42,31.10
2023,05,14,15,43,31.10
2023,05,14,15,44,31.10
2023,05,14,15,45,31.20
2023,05,14,15,46,31.20
2023,05,14,15,47,31.20
2023,05,14,15,48,31.20
2023,05,14,15,49,31.20
2023,05,14,15,50,31.20
2023,05,14,15,51,31.20
2023,05,14,15,52,31.20
2023,05,14,15,53,31.30
2023,05,14,15,54,31.30
2023,05,14,15,55,31.30
2023,05,14,15,56,31.30
2023,05,14,15,57,31.30
2023,05,14,15,58,31.20
2023,05,14,15,59,31.20
2023,05,14,16,00,31.20
2023,05,14,16,01,31.20
2023,05,14,16,02,31.20
2023,05,14,16,03,31.30
2023,05,14,16,04,31.30
2023,05,14,16,05,31.30
2023,05,14,16,06,31.30
2023,05,14,16,07,31.20
2023,05,14,16,08,31.20
2023,05,14,16,09,31.30
2023,05,14,16,10,31.40
2023,05,14,16,11,31.40
2023,05,14,16,12,31.40
2023,05,14,16,13,31.30
2023,05,14,16,14,31.30
2023,05,14,16,15,31.30
2023,05,14,16,16,31.20
2023,05,14,16,17,31.10
2023,05,14,16,18,31.10
2023,05,14,16,19,31.00
2023,05,14,16,20,31.00
2023,05,14,16,21,30.90
2023,05,14,16,22,30.90
2023,05,14,16,23,30.90
2023,05,14,16,24,30.90
2023,05,14,16,25,31.00
2023,05,14,16,26,31.00
2023,05,14,16,27,31.00
2023,05,14,16,28,31.10
2023,05,14,16,29,31.20
2023,05,14,16,30,31.20
2023,05,14,16,31,31.30
2023,05,14,16,32,31.30
2023,05,14,16,33,31.30
2023,05,14,16,34,31.30
2023,05,14,16,35,31.30
2023,05,14,16,36,31.20
2023,05,14,16,37,31.20
2023,05,14,16,38,31.20
2023,05,14,16,39,31.20
2023,05,14,16,40,31.20
2023,05,14,16,41,31.10
2023,05,14,16,42,31.20
2023,05,14,16,43,31.20
2023,05,14,16,44,31.20
2023,05,14,16,45,31.20
2023,05,14,16,46,31.20
2023,05,14,16,47,31.10
2023,05,14,16,48,31.10
2023,05,14,16,49,31.10
2023,05,14,16,50,31.10
2023,05,14,16,51,31.10
2023,05,14,16,52,31.10
2023,05,14,16,53,31.20
2023,05,14,16,54,31.20
2023,05,14,16,55,31.20
2023,05,14,16,56,31.20
2023,05,14,16,57,31.10
2023,05,14,16,58,31.10
2023,05,14,16,59,31.10
2023,05,14,17,00,31.10
2023,05,14,17,01,31.10
2023,05,14,17,02,31.20
2023,05,14,17,03,31.10
2023,05,14,17,04,31.10
2023,05,14,17,05,31.10
2023,05,14,17,06,31.10
2023,05,14,17,07,31.10
2023,05,14,17,08,31.10
2023,05,14,17,09,31.10
2023,05,14,17,10,31.10
2023,05,14,17,11,31.10
2023,05,14,17,12,31.20
2023,05,14,17,13,31.30
2023,05,14,17,14,31.40
2023,05,14,17,15,31.40
2023,05,14,17,16,31.50
2023,05,14,17,17,31.60
2023,05,14,17,18,31.70
2023,05,14,17,19,31.70
2023,05,14,17,20,31.70
2023,05,14,17,21,31.50
2023,05,14,17,22,31.30
2023,05,14,17,23,31.00
2023,05,14,17,24,30.80
2023,05,14,17,25,30.60
2023,05,14,17,26,30.50
2023,05,14,17,27,30.30
2023,05,14,17,28,30.20
2023,05,14,17,29,30.20
2023,05,14,17,30,30.30
2023,05,14,17,31,30.30
2023,05,14,17,32,30.40
2023,05,14,17,33,30.40
2023,05,14,17,34,30.50
2023,05,14,17,35,30.50
2023,05,14,17,36,30.50
2023,05,14,17,37,30.60
2023,05,14,17,38,30.60
2023,05,14,17,39,30.60
2023,05,14,17,40,30.50
2023,05,14,17,41,30.40
2023,05,14,17,42,30.30
2023,05,14,17,43,30.30
2023,05,14,17,44,30.20
2023,05,14,17,45,30.30
2023,05,14,17,46,30.30
2023,05,14,17,47,30.40
2023,05,14,17,48,30.50
2023,05,14,17,49,30.60
2023,05,14,17,50,30.70
2023,05,14,17,51,30.80
2023,05,14,17,52,30.90
2023,05,14,17,53,30.90
2023,05,14,17,54,31.00
2023,05,14,17,55,31.10
2023,05,14,17,56,31.10
2023,05,14,17,57,31.20
2023,05,14,17,58,31.20
2023,05,14,17,59,31.20
2023,05,14,18,00,31.30
2023,05,14,18,01,31.30
2023,05,14,18,02,31.30
2023,05,14,18,03,31.40
2023,05,14,18,04,31.40
2023,05,14,18,05,31.40
2023,05,14,18,06,31.40
2023,05,14,18,07,31.40
2023,05,14,18,08,31.40
2023,05,14,18,09,31.40
2023,05,14,18,10,31.40
2023,05,14,18,11,31.40
2023,05,14,18,12,31.40
2023,05,14,18,13,31.40
2023,05,14,18,14,31.30
2023,05,14,18,15,31.30
2023,05,14,18,16,31.30
2023,05,14,18,17,31.30
2023,05,14,18,18,31.30
2023,05,14,18,19,31.40
2023,05,14,18,20,31.40
2023,05,14,18,21,31.40
2023,05,14,18,22,31.40
2023,05,14,18,23,31.40
2023,05,14,18,24,31.50
2023,05,14,18,25,31.40
2023,05,14,18,26,31.40
2023,05,14,18,27,31.40
2023,05,14,18,28,31.40
2023,05,14,18,29,31.40
2023,05,14,18,30,31.40
2023,05,14,18,31,31.40
2023,05,14,18,32,31.40
2023,05,14,18,33,31.40
2023,05,14,18,34,31.30
2023,05,14,18,35,31.10
2023,05,14,18,36,30.60
2023,05,14,18,37,30.20
2023,05,14,18,38,29.90
2023,05,14,18,39,29.70
2023,05,14,18,40,29.50
2023,05,14,18,41,29.30
2023,05,14,18,42,29.30
2023,05,14,18,43,29.20
2023,05,14,18,44,29.20
2023,05,14,18,45,29.30
2023,05,14,18,46,29.30
2023,05,14,18,47,29.40
2023,05,14,18,48,29.50
2023,05,14,18,49,29.50
2023,05,14,18,50,29.60
2023,05,14,18,51,29.60
2023,05,14,18,52,29.70
2023,05,14,18,53,29.80
2023,05,14,18,54,29.90
2023,05,14,18,55,29.90
2023,05,14,18,56,29.90
2023,05,14,18,57,29.80
2023,05,14,18,58,29.70
2023,05,14,18,59,29.60
2023,05,14,19,00,29.50
2023,05,14,19,01,29.40
2023,05,14,19,02,29.30
2023,05,14,19,03,29.20
2023,05,14,19,04,29.20
2023,05,14,19,05,29.20
2023,05,14,19,06,29.10
2023,05,14,19,07,29.20
2023,05,14,19,08,29.20
2023,05,14,19,09,29.20
2023,05,14,19,10,29.30
2023,05,14,19,11,29.30
2023,05,14,19,12,29.40
2023,05,14,19,13,29.40
2023,05,14,19,14,29.50
2023,05,14,19,15,29.60
2023,05,14,19,16,29.60
2023,05,14,19,17,29.70
2023,05,14,19,18,29.70
2023,05,14,19,19,29.70
2023,05,14,19,20,29.70
2023,05,14,19,21,29.70
2023,05,14,19,22,29.80
2023,05,14,19,23,29.80
2023,05,14,19,24,29.80
2023,05,14,19,45,29.80
2023,05,14,19,46,29.80
2023,05,14,19,59,29.60
2023,05,14,20,00,29.60
2023,05,14,20,01,29.60
2023,05,14,20,02,29.60
2023,05,14,20,03,29.60
2023,05,14,20,04,29.60
2023,05,14,20,05,29.60
2023,05,14,20,06,29.60
2023,05,14,20,07,29.50
2023,05,14,20,08,29.50
2023,05,14,20,33,28.40
2023,05,14,20,34,28.30
2023,05,14,20,35,28.30
2023,05,14,20,38,27.30
2023,05,14,20,39,27.00
2023,05,14,20,40,26.50
2023,05,14,20,41,26.00
2023,05,14,20,42,25.80
2023,05,14,20,43,25.60
2023,05,14,20,44,25.50
2023,05,14,20,45,25.30
2023,05,14,20,46,25.20
2023,05,14,20,47,24.90
2023,05,14,20,48,24.80
2023,05,14,20,49,24.40
2023,05,14,20,50,24.30
2023,05,14,20,51,24.00
2023,05,14,20,52,23.80
2023,05,14,20,53,23.60
2023,05,14,20,54,23.50
2023,05,14,20,55,23.30
2023,05,14,20,56,23.10
2023,05,14,20,57,23.00
2023,05,14,20,58,22.90
2023,05,14,20,59,22.80
2023,05,14,21,00,22.80
2023,05,14,21,01,22.70
2023,05,14,21,02,22.60
2023,05,14,21,03,22.60
2023,05,14,21,04,22.60
2023,05,14,21,05,22.50
2023,05,14,21,08,22.30
2023,05,14,21,09,22.20
2023,05,14,21,10,22.20
2023,05,14,21,11,22.10
2023,05,14,21,12,22.10
2023,05,14,21,13,22.10
2023,05,14,21,14,22.00
2023,05,14,21,16,21.90
2023,05,14,21,17,21.90
2023,05,14,21,28,21.60
2023,05,14,21,29,21.50
2023,05,14,21,30,21.50
2023,05,14,21,31,21.50
2023,05,14,21,32,21.40
2023,05,14,21,33,21.40
2023,05,14,21,34,21.40
2023,05,14,21,35,21.30
2023,05,14,21,36,21.30
2023,05,14,21,37,21.30
2023,05,14,21,38,21.30
2023,05,14,21,39,21.20
2023,05,14,21,40,21.20
2023,05,14,21,41,21.20
2023,05,14,21,42,21.10
2023,05,14,21,45,21.00
2023,05,14,21,46,21.00
2023,05,14,21,47,21.00
2023,05,14,21,48,21.00
2023,05,14,21,49,20.90
2023,05,14,21,50,20.90
2023,05,14,21,51,20.90
2023,05,14,21,52,20.90
2023,05,14,21,53,20.90
2023,05,14,21,54,20.90
2023,05,14,21,55,20.80
2023,05,14,21,56,20.80
2023,05,14,21,57,20.80
2023,05,14,21,58,20.70
2023,05,14,21,59,20.60
2023,05,14,22,00,20.60
2023,05,14,22,01,20.50
2023,05,14,22,02,20.40
2023,05,14,22,03,20.40
2023,05,14,22,04,20.30
2023,05,14,22,05,20.20
2023,05,14,22,06,20.20
2023,05,14,22,07,20.20
2023,05,14,22,08,20.10
2023,05,14,22,09,20.10
2023,05,14,22,10,20.10
2023,05,14,22,11,20.10
2023,05,14,22,12,20.10
2023,05,14,22,13,20.10
2023,05,14,22,14,20.20
2023,05,14,22,15,20.20
2023,05,14,22,16,20.30
2023,05,14,22,17,20.40
2023,05,14,22,18,20.40
2023,05,14,22,19,20.40
2023,05,14,22,20,20.50
2023,05,14,22,21,20.50
2023,05,14,22,47,19.60
2023,05,14,22,48,19.60
2023,05,14,22,57,19.80
2023,05,14,22,58,19.80
2023,05,14,22,59,19.90
2023,05,14,23,00,19.90
2023,05,14,23,01,19.80
2023,05,14,23,04,19.70
2023,05,14,23,05,19.70
2023,05,14,23,07,19.60
2023,05,14,23,11,19.50
2023,05,14,23,12,19.50
2023,05,14,23,13,19.40
2023,05,14,23,14,19.40
2023,05,14,23,15,19.40
2023,05,14,23,16,19.40
2023,05,14,23,17,19.30
2023,05,14,23,18,19.30
2023,05,14,23,21,19.30
2023,05,14,23,22,19.30
2023,05,14,23,23,19.30
2023,05,14,23,25,19.30
2023,05,14,23,51,20.30
2023,05,14,23,54,20.40
2023,05,14,23,56,20.40
2023,05,14,23,57,20.40
2023,05,14,23,58,20.40
2023,05,14,23,59,20.50
